This is the latest recevied weather packets stored in our database for station/object KJ7BRE-1. If no packets are shown the sender has not sent any weather packets the latest 1 day(s).
| Time | Temp. | Humidity | Pressure | Rain* | Wind** | Luminosity | Snow |
|---|---|---|---|---|---|---|---|
| 1778010855 | 16.67° C | 67% | 1010.5 hPa | 0 mm | 0.45 m/s, 18° | - | - |
| 1778010554 | 16.67° C | 68% | 1010.5 hPa | 0 mm | 0.45 m/s, 351° | - | - |
| 1778010252 | 16.67° C | 67% | 1010.5 hPa | 0 mm | 0.45 m/s, 18° | - | - |
| 1778009951 | 16.67° C | 68% | 1010.5 hPa | 0 mm | 0.45 m/s, 261° | - | - |
| 1778009650 | 16.67° C | 67% | 1010.5 hPa | 0 mm | 1.34 m/s, 351° | - | - |
| 1778009349 | 16.67° C | 67% | 1010.5 hPa | 0 mm | 0.45 m/s, 18° | - | - |
| 1778009048 | 16.67° C | 67% | 1010.8 hPa | 0 mm | 0 m/s | - | - |
| 1778008746 | 16.67° C | 67% | 1010.5 hPa | 0 mm | 0.89 m/s, 27° | - | - |
| 1778008445 | 16.67° C | 68% | 1010.5 hPa | 0 mm | 0.45 m/s, 180° | - | - |
| 1778008144 | 16.67° C | 67% | 1010.5 hPa | 0 mm | 0.45 m/s, 54° | - | - |
| 1778007843 | 16.67° C | 68% | 1010.8 hPa | 0 mm | 1.79 m/s, 72° | - | - |
| 1778007541 | 17.22° C | 67% | 1010.5 hPa | 0 mm | 0.45 m/s, 108° | - | - |
| 1778007240 | 16.67° C | 68% | 1010.5 hPa | 0 mm | 0.89 m/s, 99° | - | - |
| 1778006939 | 16.11° C | 69% | 1010.8 hPa | 0 mm | 0.89 m/s, 279° | - | - |
| 1778006638 | 16.11° C | 69% | 1010.8 hPa | 0 mm | 1.34 m/s, 351° | - | - |
| 1778006337 | 15.56° C | 70% | 1010.8 hPa | 0 mm | 0.89 m/s, 81° | - | - |
| 1778006035 | 16.11° C | 70% | 1010.5 hPa | 0 mm | 0 m/s | - | - |
| 1778005734 | 15.56° C | 72% | 1010.8 hPa | 0 mm | 0 m/s | - | - |
| 1778005433 | 15° C | 72% | 1010.5 hPa | 0 mm | 0.89 m/s, 153° | - | - |
| 1778005132 | 15.56° C | 72% | 1010.8 hPa | 0 mm | 0.45 m/s, 126° | - | - |
| 1778004830 | 15° C | 73% | 1010.5 hPa | 0 mm | 0 m/s | - | - |
| 1778004529 | 15° C | 73% | 1010.5 hPa | 0 mm | 0.89 m/s, 180° | - | - |
| 1778004228 | 15° C | 74% | 1010.5 hPa | 0 mm | 0.45 m/s, 261° | - | - |
| 1778003927 | 14.44° C | 74% | 1010.8 hPa | 0 mm | 0.45 m/s, 342° | - | - |
| 1778003625 | 14.44° C | 75% | 1010.8 hPa | 0 mm | 0.45 m/s, 27° | - | - |
* Rain latest hour (hover to see other rain measurements)
** Current wind speed in m/s (hover to see current wind gust speed)